User: anonymous   Login
Location: Newark
(49.7697°N, 2.7094°E)
Time: 19:06:42
(UTC+00:00)
Language:

First-Move - Orbit

View from above orbital plane
View from above orbital plane
View from above satellite
View from above satellite

Ground track
Ground track

The orbit data is extracted from the following two-line orbital elements,

1 39439U 13066Z   20101.24576728 +.00000409 +00000-0 +55805-4 0  9999
2 39439 097.5729 103.5472 0066283 140.1831 220.4274 14.82079962343777
Epoch (UTC): 10 April 2020 05:53:54
Eccentricity: 0.0066283
inclination: 97.5729°
perigee height: 576 km
apogee height: 669 km
right ascension of ascending node: 103.5472°
argument of perigee: 140.1831°
revolutions per day: 14.82079962
mean anomaly at epoch: 220.4274°
orbit number at epoch: 34377

The dashed part of the orbit path shows where the satellite is in the earth's shadow,  

DLR